Location: Harburg
(48.7667°N, 10.6667°E)
Time: 03:58:01
(UTC+00:00)

DMSP B5D2-2 - Pass Details

Date: 18 September 2020
Orbit: 790 x 806 km, 98.3° (Epoch: 29 October)

Event Time Altitude Azimuth Distance (km) Brightness Sun altitude
Rises 18:38:49 0° 19° (NNE) 3,334 7.3 -13.1°
Reaches altitude 10° 18:41:17 10° 26° (NNE) 2,399 6.5 -13.5°
Maximum altitude 18:46:20 43° 98° (E) 1,122 4.4 -14.3°
Drops below altitude 10° 18:51:20 10° 169° (S) 2,380 6.2 -15.0°
Sets 18:53:46 0° 176° (S) 3,305 7.0 -15.4°
